Sand Point, AK

9:30 AM AKDT on August 24, 2016 (GMT -0800)
Sand Point

Weather History for PASD - August, 2013

Change the Weather History Date:

Monday, August 26, 2013

  Actual Average Record
Temperature  
Mean Temperature 53 °F -  
Max Temperature 55 °F 54 °F 69 °F (2015)
Min Temperature 51 °F 47 °F 42 °F (2011)
Degree Days  
Heating Degree Days 12    
Growing Degree Days 3 (Base 50)    
Moisture  
Dew Point 52 °F    
Average Humidity 97    
Maximum Humidity 100    
Minimum Humidity 88    
Precipitation  
Precipitation 0.00 in - - ()
Sea Level Pressure  
Sea Level Pressure 29.78 in    
Wind  
Wind Speed 5 mph (NNE)    
Max Wind Speed 16 mph    
Max Gust Speed 20 mph    
Visibility 8 miles    
Events      
Averages and records for this station are not official NWS values.
T = Trace of Precipitation, MM = Missing Value Source: NWS Daily Summary

Daily Weather History Graph

Daily Weather History Graph

Search for Another Location

Airport or City:

Trip Planner

Search our weather history database for the weather conditions in past years. The results will help you decide how hot, cold, wet, or windy it might be!

Date:

Astronomy

Aug. 26, 2013 Rise Set
Actual Time 7:37 AM AKDT 9:48 PM AKDT
Civil Twilight 6:57 AM AKDT 10:28 PM AKDT
Nautical Twilight 6:07 AM AKDT 11:18 PM AKDT
Astronomical Twilight 5:06 AM AKDT 12:18 AM AKDT
Moon 11:53 PM AKDT (8/26) 3:02 PM AKDT (8/26)
Length of Visible Light 15h 30m
Length of Day
14h 11m
Waning Gibbous, 65% of the Moon is Illuminated
Aug 26
Waning Gibbous
Aug 28
Last Quarter
Sep 5
New
Sep 12
First Quarter
Sep 19
Full

Hourly Weather History & Observations

Time (AKDT) Temp. Dew Point Humidity Pressure Visibility Wind Dir Wind Speed Gust Speed Precip Events Conditions
12:16 AM 53.6 °F 51.8 °F 94% 29.92 in 10.0 mi WNW 6.9 mph - N/A   Clear
12:36 AM 53.6 °F 51.8 °F 94% 29.92 in 10.0 mi NW 8.1 mph - N/A   Clear
12:56 AM 53.6 °F 51.8 °F 94% 29.89 in 10.0 mi West 6.9 mph - N/A   Clear
1:16 AM 51.8 °F 51.8 °F 100% 29.89 in 10.0 mi West 5.8 mph - N/A   Clear
1:36 AM 51.8 °F 51.8 °F 100% 29.90 in 10.0 mi NNW 4.6 mph - N/A   Clear
1:56 AM 51.8 °F 50.0 °F 94% 29.89 in 10.0 mi SW 3.5 mph - N/A   Clear
2:16 AM 51.8 °F 50.0 °F 94% 29.90 in 10.0 mi NNE 3.5 mph - N/A   Clear
2:36 AM 51.8 °F 50.0 °F 94% 29.90 in 10.0 mi North 3.5 mph - N/A   Clear
2:56 AM 51.8 °F 50.0 °F 94% 29.89 in 10.0 mi ENE 3.5 mph - N/A   Clear
3:16 AM 51.8 °F 50.0 °F 94% 29.89 in 10.0 mi Calm Calm - N/A   Clear
3:36 AM 51.8 °F 50.0 °F 94% 29.88 in 10.0 mi Calm Calm - N/A   Clear
3:56 AM 51.8 °F 50.0 °F 94% 29.87 in 10.0 mi Calm Calm - N/A   Clear
4:16 AM 51.8 °F 50.0 °F 94% 29.88 in 10.0 mi Calm Calm - N/A   Clear
4:36 AM 51.8 °F 50.0 °F 94% 29.87 in 10.0 mi Calm Calm - N/A   Clear
4:56 AM 51.8 °F 50.0 °F 94% 29.86 in 10.0 mi Calm Calm - N/A   Mostly Cloudy
5:16 AM 51.8 °F 51.8 °F 100% 29.86 in 10.0 mi Calm Calm - N/A   Overcast
5:36 AM 51.8 °F 51.8 °F 100% 29.86 in 10.0 mi Calm Calm - N/A   Overcast
5:56 AM 51.8 °F 51.8 °F 100% 29.85 in 10.0 mi Calm Calm - N/A   Overcast
6:16 AM 51.8 °F 51.8 °F 100% 29.84 in 10.0 mi SSE 4.6 mph - N/A   Overcast
6:36 AM 51.8 °F 51.8 °F 100% 29.84 in 10.0 mi Calm Calm - N/A   Overcast
6:56 AM 51.8 °F 51.8 °F 100% 29.82 in 10.0 mi Calm Calm - N/A   Overcast
7:16 AM 51.8 °F 51.8 °F 100% 29.81 in 10.0 mi Calm Calm - N/A   Overcast
7:36 AM 51.8 °F 50.0 °F 94% 29.82 in 8.0 mi Calm Calm - N/A   Overcast
7:56 AM 51.8 °F 50.0 °F 94% 29.78 in 3.0 mi SE 5.8 mph - N/A   Overcast
8:16 AM 51.8 °F 51.8 °F 100% 29.78 in 4.0 mi SSE 8.1 mph - N/A   Overcast
8:36 AM 51.8 °F 51.8 °F 100% 29.77 in 8.0 mi SE 4.6 mph - N/A   Overcast
8:56 AM 51.8 °F 51.8 °F 100% 29.78 in 9.0 mi SSE 5.8 mph - N/A   Overcast
9:16 AM 51.8 °F 51.8 °F 100% 29.78 in 3.0 mi SE 5.8 mph - N/A   Overcast
9:36 AM 51.8 °F 51.8 °F 100% 29.76 in 3.0 mi SE 8.1 mph - N/A   Overcast
9:56 AM 51.8 °F 51.8 °F 100% 29.75 in 3.0 mi SE 5.8 mph - N/A   Overcast
10:16 AM 51.8 °F 51.8 °F 100% 29.76 in 7.0 mi ESE 3.5 mph - N/A   Overcast
10:36 AM 51.8 °F 51.8 °F 100% 29.74 in 3.0 mi SE 5.8 mph - N/A   Overcast
10:56 AM 53.6 °F 53.6 °F 100% 29.73 in 4.0 mi SSE 6.9 mph - N/A   Overcast
11:16 AM 53.6 °F 53.6 °F 100% 29.68 in 4.0 mi SSE 12.7 mph 19.6 mph N/A   Overcast
11:36 AM 53.6 °F 53.6 °F 100% 29.72 in 4.0 mi SE 4.6 mph - N/A   Overcast
11:56 AM 53.6 °F 51.8 °F 94% 29.72 in 9.0 mi SE 4.6 mph - N/A   Overcast
12:16 PM 53.6 °F 53.6 °F 100% 29.71 in 4.0 mi SE 3.5 mph - N/A   Overcast
12:36 PM 53.6 °F 53.6 °F 100% 29.71 in 3.0 mi Calm Calm - N/A   Overcast
12:56 PM 53.6 °F 53.6 °F 100% 29.70 in 4.0 mi Calm Calm - N/A   Overcast
1:16 PM 53.6 °F 53.6 °F 100% 29.70 in 8.0 mi Calm Calm - N/A   Overcast
1:36 PM 53.6 °F 53.6 °F 100% 29.70 in 3.0 mi NNE 4.6 mph - N/A   Overcast
1:56 PM 53.6 °F 53.6 °F 100% 29.69 in 2.0 mi North 4.6 mph - N/A   Overcast
2:16 PM 53.6 °F 53.6 °F 100% 29.69 in 3.0 mi NNE 5.8 mph - N/A   Overcast
2:36 PM 53.6 °F 53.6 °F 100% 29.69 in 8.0 mi NNE 6.9 mph - N/A   Overcast
2:56 PM 53.6 °F 53.6 °F 100% 29.69 in 10.0 mi NNE 8.1 mph - N/A   Overcast
3:16 PM 53.6 °F 53.6 °F 100% 29.69 in 3.0 mi NNE 9.2 mph - N/A   Overcast
3:36 PM 53.6 °F 53.6 °F 100% 29.69 in 3.0 mi North 9.2 mph - N/A   Overcast
3:56 PM 53.6 °F 53.6 °F 100% 29.69 in 9.0 mi North 5.8 mph - N/A   Overcast
4:16 PM 53.6 °F 53.6 °F 100% 29.69 in 10.0 mi North 6.9 mph - N/A   Overcast
4:36 PM 55.4 °F 55.4 °F 100% 29.68 in 10.0 mi NNE 6.9 mph - N/A   Overcast
4:56 PM 55.4 °F 53.6 °F 94% 29.69 in 10.0 mi North 9.2 mph - N/A   Mostly Cloudy
5:16 PM 55.4 °F 55.4 °F 100% 29.70 in 10.0 mi North 6.9 mph - N/A   Mostly Cloudy
5:36 PM 55.4 °F 53.6 °F 94% 29.70 in 10.0 mi North 5.8 mph - N/A   Mostly Cloudy
5:56 PM 55.4 °F 53.6 °F 94% 29.70 in 10.0 mi North 6.9 mph - N/A   Overcast
6:16 PM 55.4 °F 53.6 °F 94% 29.71 in 10.0 mi North 6.9 mph - N/A   Overcast
6:36 PM 53.6 °F 51.8 °F 94% 29.72 in 10.0 mi North 8.1 mph - N/A   Overcast
6:56 PM 53.6 °F 51.8 °F 94% 29.73 in 10.0 mi North 5.8 mph - N/A   Mostly Cloudy
7:16 PM 53.6 °F 51.8 °F 94% 29.74 in 10.0 mi North 8.1 mph - N/A   Mostly Cloudy
7:36 PM 53.6 °F 51.8 °F 94% 29.74 in 10.0 mi NNE 9.2 mph - N/A   Mostly Cloudy
7:56 PM 55.4 °F 53.6 °F 94% 29.75 in 10.0 mi North 4.6 mph - N/A   Mostly Cloudy
8:16 PM 55.4 °F 53.6 °F 94% 29.76 in 10.0 mi North 5.8 mph - N/A   Overcast
8:36 PM 53.6 °F 53.6 °F 100% 29.77 in 10.0 mi North 5.8 mph - N/A   Overcast
8:56 PM 55.4 °F 53.6 °F 94% 29.78 in 10.0 mi NNW 5.8 mph - N/A   Overcast
9:16 PM 55.4 °F 53.6 °F 94% 29.79 in 10.0 mi North 4.6 mph - N/A   Overcast
9:36 PM 55.4 °F 53.6 °F 94% 29.79 in 10.0 mi NNE 5.8 mph - N/A   Overcast
9:56 PM 55.4 °F 53.6 °F 94% 29.81 in 10.0 mi NNW 8.1 mph - N/A   Overcast
10:16 PM 53.6 °F 51.8 °F 94% 29.82 in 10.0 mi NNW 10.4 mph - N/A   Overcast
10:36 PM 53.6 °F 51.8 °F 94% 29.84 in 10.0 mi NW 9.2 mph - N/A   Overcast
10:56 PM 53.6 °F 51.8 °F 94% 29.85 in 10.0 mi NNW 13.8 mph - N/A   Overcast
11:16 PM 53.6 °F 50.0 °F 88% 29.86 in 10.0 mi NNW 15.0 mph - N/A   Overcast
11:36 PM 51.8 °F 50.0 °F 94% 29.87 in 10.0 mi NNW 15.0 mph - N/A   Mostly Cloudy
11:56 PM 51.8 °F 48.2 °F 88% 29.88 in 10.0 mi NNW 16.1 mph - N/A   Partly Cloudy